Weather History for Waukesha, WI

Change the Weather History Date:

Sunday, December 9, 2012

  Actual Average Record
Temperature  
Mean Temperature 32 °F -  
Max Temperature 33 °F 31 °F 53 °F (1952)
Min Temperature 30 °F 17 °F -10 °F (1958)
Degree Days  
Heating Degree Days 34    
Moisture  
Dew Point 31 °F    
Average Humidity 93    
Maximum Humidity 100    
Minimum Humidity 81    
Precipitation  
Precipitation 0.00 in - - ()
Sea Level Pressure  
Sea Level Pressure 29.89 in    
Wind  
Wind Speed 9 mph (East)    
Max Wind Speed 15 mph    
Max Gust Speed 20 mph    
Visibility 6 miles    
Events Rain , Snow    
Averages and records for this station are not official NWS values.
T = Trace of Precipitation, MM = Missing Value Source: NWS Daily Summary

Daily Weather History Graph

Daily Weather History Graph

Search for Another Location

Airport:

Trip Planner

Search our weather history database for the weather conditions in past years. The results will help you decide how hot, cold, wet, or windy it might be!

Date:

Astronomy

Dec. 09, 2012 Rise Set
Actual Time 7:13 AM CST 4:18 PM CST
Civil Twilight 6:40 AM CST 4:50 PM CST
Nautical Twilight 6:05 AM CST 5:26 PM CST
Astronomical Twilight 5:30 AM CST 6:00 PM CST
Moon 2:40 AM CST (12/9) 1:28 PM CST (12/9)
Length of Visible Light 10h 09m
Length of Day
9h 05m
Waning Crescent, 18% of the Moon is Illuminated
Dec 9
Waning Crescent
Dec 13
New
Dec 19
First Quarter
Dec 28
Full
Jan 4
Last Quarter

Hourly Weather History & Observations

Time (CST) Temp. Windchill Dew Point Humidity Pressure Visibility Wind Dir Wind Speed Gust Speed Precip Events Conditions
12:15 AM 33.8 °F 26.4 °F 30.2 °F 87% 30.10 in 10.0 mi East 9.2 mph - N/A   Overcast
12:35 AM 33.8 °F 25.3 °F 30.2 °F 87% 30.10 in 10.0 mi East 11.5 mph - N/A   Mostly Cloudy
1:15 AM 33.8 °F 25.8 °F 30.2 °F 87% 30.09 in 10.0 mi East 10.4 mph - N/A   Scattered Clouds
1:35 AM 33.8 °F 24.8 °F 30.2 °F 87% 30.09 in 10.0 mi East 12.7 mph - N/A   Scattered Clouds
1:55 AM 33.8 °F 25.3 °F 28.4 °F 81% 30.09 in 10.0 mi East 11.5 mph - N/A   Overcast
2:15 AM 33.8 °F 25.3 °F 28.4 °F 81% 30.09 in 10.0 mi East 11.5 mph - N/A   Overcast
2:35 AM 33.8 °F 23.9 °F 28.4 °F 81% 30.09 in 10.0 mi East 15.0 mph - N/A   Overcast
2:55 AM 33.8 °F 25.3 °F 28.4 °F 81% 30.08 in 10.0 mi East 11.5 mph - N/A   Overcast
3:15 AM 33.8 °F 25.8 °F 28.4 °F 81% 30.08 in 10.0 mi East 10.4 mph - N/A   Overcast
3:35 AM 33.8 °F 25.8 °F 28.4 °F 81% 30.07 in 10.0 mi East 10.4 mph 19.6 mph N/A   Overcast
3:55 AM 33.8 °F 24.8 °F 28.4 °F 81% 30.06 in 10.0 mi East 12.7 mph - N/A   Overcast
4:15 AM 33.8 °F 24.8 °F 30.2 °F 87% 30.04 in 10.0 mi East 12.7 mph 17.3 mph N/A   Overcast
4:35 AM 33.8 °F 25.3 °F 30.2 °F 87% 30.03 in 10.0 mi East 11.5 mph 19.6 mph N/A   Overcast
5:45 AM 33.8 °F 25.3 °F 30.2 °F 87% 30.03 in 10.0 mi East 11.5 mph 19.6 mph N/A   Overcast
6:45 AM 33.8 °F 26.4 °F 32.0 °F 93% 30.02 in 7.0 mi East 9.2 mph - N/A   Overcast
7:45 AM 32.0 °F 25.6 °F 32.0 °F 100% 30.00 in 1.0 mi East 6.9 mph - N/A Rain Light Rain
8:45 AM 32.0 °F 24.8 °F 32.0 °F 100% 30.00 in 2.0 mi ENE 8.1 mph - N/A Rain Light Rain
9:45 AM 33.8 °F 25.8 °F 33.8 °F 100% 29.97 in 5.0 mi East 10.4 mph - N/A Rain Light Rain
10:45 AM 33.8 °F 25.8 °F 33.8 °F 100% 29.93 in 4.0 mi East 10.4 mph - N/A Rain Light Rain
11:45 AM 33.8 °F 26.4 °F 32.0 °F 93% 29.89 in 2.5 mi ENE 9.2 mph - N/A Snow Light Snow
12:45 PM 32.0 °F 23.6 °F 30.2 °F 93% 29.84 in 1.8 mi ENE 10.4 mph - N/A Snow Light Snow
1:45 PM 32.0 °F 23.0 °F 32.0 °F 100% 29.81 in 1.8 mi ENE 11.5 mph - N/A Snow Light Snow
2:45 PM 32.0 °F 24.8 °F 30.2 °F 93% 29.80 in 3.0 mi ENE 8.1 mph - N/A   Overcast
3:45 PM 30.2 °F 23.4 °F 30.2 °F 100% 29.78 in 1.0 mi ENE 6.9 mph - N/A Snow Light Snow
4:45 PM 32.0 °F 23.0 °F 32.0 °F 100% 29.75 in 3.0 mi ENE 11.5 mph - N/A   Overcast
5:45 PM 33.8 °F 28.6 °F 33.8 °F 100% 29.75 in 3.0 mi East 5.8 mph - N/A   Overcast
6:45 PM 33.8 °F 27.7 °F 33.8 °F 100% 29.73 in 3.0 mi ENE 6.9 mph - N/A   Overcast
8:35 PM 33.8 °F - 33.8 °F 100% 29.70 in 3.0 mi Calm Calm - N/A   Overcast
8:45 PM 33.8 °F - 33.8 °F 100% 29.70 in 2.0 mi Calm Calm - N/A   Overcast
8:55 PM 33.8 °F 30.8 °F 33.8 °F 100% 29.68 in 3.0 mi NE 3.5 mph - N/A   Overcast
9:15 PM 33.8 °F 30.8 °F 33.8 °F 100% 29.68 in 3.0 mi ENE 3.5 mph - N/A   Overcast
9:35 PM 33.8 °F - 33.8 °F 100% 29.68 in 3.0 mi Calm Calm - N/A   Overcast
10:15 PM 33.8 °F 29.6 °F 33.8 °F 100% 29.67 in 5.0 mi West 4.6 mph - N/A   Overcast
10:35 PM 33.8 °F 30.8 °F 33.8 °F 100% 29.67 in 2.5 mi WSW 3.5 mph - N/A   Overcast
10:55 PM 33.8 °F 27.7 °F 33.8 °F 100% 29.68 in 2.5 mi WSW 6.9 mph - N/A   Overcast
11:15 PM 33.8 °F 26.4 °F 33.8 °F 100% 29.68 in 2.5 mi WSW 9.2 mph - N/A   Overcast
11:35 PM 32.0 °F 24.8 °F 32.0 °F 100% 29.68 in 5.0 mi West 8.1 mph - N/A   Overcast
11:55 PM 32.0 °F 25.6 °F 32.0 °F 100% 29.67 in 7.0 mi West 6.9 mph - N/A   Overcast